THORAD AGENA D DEB, 4652

Orbit data source: Space-Track

THORAD AGENA D DEB, 4652 is space debris in SSO originally from a launch on Wed, 08 Apr 1970 UTC launched from the Air Force Western Test Range (AFWTR). Debris objects in space refer to the collection of defunct objects orbiting the Earth. Examples of debris include non-operational satellites, rocket bodies, and fragments generated from explosions, collisions, or faulty payload assembly.

Loading next visibility...
Identifier
4652, 1970-025AL
Orbit
SSO
Country
Flag of USUS
Related business
Manufacturer
Unknown
Mission
Spacecraft
Bus & Motor
Unknown
Mass
Unknown
Launch date (UTC)
1970-04-08 (56 years ago)
Launch vehicle
Unknown
Launch site
Air Force Western Test Range (AFWTR)
Object type
Payload
Rocket body
Debris
Shape & HBR
Unknown shape, 0.1 m
Radar Cross Section
Small (<0.1 m²)

Expand to show TLE details & history
Last TLE update: 7 hours ago

TLE from 7 hours ago
0 THORAD AGENA D DEB
1 04652U 70025AL  25295.87788117  .00001678  00000-0  13914-2 0  9993
2 04652  99.5968  77.5415 0031563 135.4222  16.8131 13.90081290784249
Epoch: 2025-10-22T21:04Z
TLE epoch observation values (Epoch: 2025-10-22T21:04:08.933Z)
Latitude
27.2804°
Longitude
-85.06491°
Altitude
909.543 km
Speed
7.411 km/s
True Right ascension
17h 30m 04s
True Declination
27° 08' 36"
Sunlit
Object was in daylight at epoch
Visualization orbit readout
Latitude
Unknown
Longitude
Unknown
Altitude
Unknown
Speed
Unknown
Apparent Right ascension
Unknown
Apparent Declination
Unknown
Sunlit
N/A
Visualization observer readout
Local Sidereal Time
23:24:13
Azimuth
Unknown
Elevation
Unknown
Doppler factor
Unknown
Orbital elements
Apogee altitude
948.641 km
Perigee altitude
902.536 km
Semi-major axis
7,303.726 km
Eccentricity
0.00316
Inclination
99.5968°
RAAN
77.5415°
Arg. of periapsis
135.4222°
True anomaly
16.91811°
Mean anomaly
16.8131°
Eccentric anomaly
16.86557°
Mean motion
3.47717 °/min
Orbital period
103.53 mins
BSTAR
0.0013914

Documentation

Showing up to 5 results
|